sat.trackr.live / text

‹ back to catalog

STARLINK-4052

NORAD 53171 · 2022-083AR

PAYLOAD ACTIVE UNKNOWN

§ Identity

Operator
Country
US
Launch date
2022-07-17
Launch site
AFETR
Launch vehicle
Mass (kg)
RCS (m²)

Purposes: comms

External: N2YO · Heavens-Above · Gunter

§ Orbital elements

Epoch: 2026-05-25T04:48:27.491616Z

Period
95.44 min
Inclination
53.2141°
Eccentricity
0.0001213
Mean motion
15.08841950 rev/d
Perigee alt
538.9 km
Apogee alt
540.6 km
Semi-major
6,917.9 km
B*
3.8713e-5
RAAN
150.4113°
Arg perigee
63.9299°
Mean anomaly
296.1817°
Rev number
21,332

§ Raw data

STARLINK-40521 53171U 22083AR  26145.20031819  .00000328  00000+0  38713-4 0  99922 53171  53.2141 150.4113 0001213  63.9299 296.1817 15.08841950213321

JSON: /api/v1/satellites/53171 · /tle

For live sub-satellite position, see the globe view (requires WebGL).

§ Visibility from observer

Set your observer location to see the next 7 days of passes ≥ 10°. The values pass through the URL so the page stays shareable.

No JS? Fill the form by hand. The geolocation button needs JavaScript.